Location: Peebles
(55.6412°N, 3.1714°W)
Time: 06:05:25
(UTC+00:00)

USA 308 - Visible Passes

Search period start: 28 January 2022 00:00
Search period end: 07 February 2022 00:00
Orbit: 563 x 570 km, 54.0° (Epoch: 14 January)

Date Brightness Start Highest point End Pass type
(mag) Time Alt. Az. Time Alt. Az. Time Alt. Az.
28 Jan 4.8 18:27:26 10° S 18:29:48 15° SE 18:30:05 15° SE visible
28 Jan 5.1 20:04:51 10° SW 20:06:05 18° SW 20:06:05 18° SW visible
29 Jan 4.5 18:26:23 10° S 18:29:23 19° SE 18:30:13 18° SE visible
29 Jan 4.8 20:04:29 10° SW 20:06:14 23° SW 20:06:14 23° SW visible
30 Jan 4.3 18:25:34 10° SSW 18:28:59 24° SE 18:30:18 21° ESE visible
30 Jan 4.6 20:04:09 10° WSW 20:06:18 28° SW 20:06:18 28° SW visible
31 Jan 4.0 18:24:55 10° SSW 18:28:37 30° SSE 18:30:18 22° ESE visible
31 Jan 4.4 20:03:51 10° WSW 20:06:18 33° WSW 20:06:18 33° WSW visible
01 Feb 3.7 18:24:22 10° SW 18:28:15 37° SSE 18:30:15 23° ESE visible
01 Feb 4.2 20:03:34 10° WSW 20:06:14 37° WSW 20:06:14 37° WSW visible
02 Feb 3.5 18:23:54 10° SW 18:27:55 44° SSE 18:30:09 23° E visible
02 Feb 4.0 20:03:19 10° W 20:06:08 40° WSW 20:06:08 40° WSW visible
03 Feb 3.3 18:23:29 10° WSW 18:27:36 52° SSE 18:30:01 23° E visible
03 Feb 3.9 20:03:02 10° W 20:06:00 43° WSW 20:06:00 43° WSW visible
04 Feb 3.1 18:23:07 10° WSW 18:27:17 59° SSE 18:29:51 22° E visible
04 Feb 3.8 20:02:46 10° W 20:05:50 45° WSW 20:05:50 45° WSW visible
05 Feb 3.0 18:22:47 10° WSW 18:26:59 65° S 18:29:41 21° E visible
05 Feb 3.7 20:02:29 10° W 20:05:40 47° WSW 20:05:40 47° WSW visible
06 Feb 3.0 18:22:28 10° WSW 18:26:41 70° S 18:29:30 20° E visible
06 Feb 3.7 20:02:13 10° W 20:05:29 47° WSW 20:05:29 47° WSW visible
